TimeMST,TemperatureF,Dew PointF,Humidity,Sea Level PressureIn,VisibilityMPH,Wind Direction,Wind SpeedMPH,Gust SpeedMPH,PrecipitationIn,Events,Conditions,WindDirDegrees,DateUTC
12:57 AM,33.1,30.9,92,30.19,10.0,Calm,Calm,-,N/A,,Clear,0,2012-10-14 07:57:00
1:57 AM,32.0,30.9,96,30.20,10.0,Calm,Calm,-,N/A,,Clear,0,2012-10-14 08:57:00
2:57 AM,32.0,30.0,92,30.19,10.0,Calm,Calm,-,N/A,,Clear,0,2012-10-14 09:57:00
3:57 AM,33.1,30.9,92,30.19,10.0,Calm,Calm,-,N/A,,Clear,0,2012-10-14 10:57:00
4:57 AM,33.1,30.9,92,30.21,10.0,Calm,Calm,-,N/A,,Clear,0,2012-10-14 11:57:00
6:57 AM,33.1,30.0,89,30.28,10.0,Calm,Calm,-,N/A,,Clear,0,2012-10-14 13:57:00
7:57 AM,44.1,37.0,76,30.28,10.0,NE,6.9,-,N/A,,Clear,50,2012-10-14 14:57:00
8:57 AM,52.0,37.0,57,30.27,10.0,NE,12.7,-,N/A,,Clear,50,2012-10-14 15:57:00
9:57 AM,55.9,37.9,51,30.27,10.0,ENE,15.0,19.6,N/A,,Clear,70,2012-10-14 16:57:00
10:57 AM,57.0,37.9,49,30.26,10.0,ENE,12.7,21.9,N/A,,Clear,60,2012-10-14 17:57:00
11:57 AM,59.0,37.9,46,30.25,10.0,NE,15.0,21.9,N/A,,Clear,50,2012-10-14 18:57:00
12:57 PM,60.1,37.0,42,30.22,10.0,ENE,15.0,20.7,N/A,,Clear,60,2012-10-14 19:57:00
1:57 PM,61.0,37.0,41,30.20,10.0,ENE,8.1,19.6,N/A,,Clear,60,2012-10-14 20:57:00
2:57 PM,62.1,35.1,37,30.18,10.0,East,12.7,-,N/A,,Clear,80,2012-10-14 21:57:00
3:57 PM,62.1,35.1,37,30.17,10.0,East,8.1,-,N/A,,Clear,100,2012-10-14 22:57:00
4:57 PM,60.1,35.1,39,30.17,10.0,East,9.2,-,N/A,,Clear,90,2012-10-14 23:57:00
5:57 PM,55.0,36.0,49,30.20,10.0,ENE,5.8,-,N/A,,Clear,70,2012-10-15 00:57:00
6:57 PM,48.0,37.0,66,30.24,10.0,Calm,Calm,-,N/A,,Clear,0,2012-10-15 01:57:00
7:57 PM,46.9,35.1,63,30.20,10.0,ENE,3.5,-,N/A,,Clear,70,2012-10-15 02:57:00
8:57 PM,41.0,35.1,79,30.19,10.0,Calm,Calm,-,N/A,,Clear,0,2012-10-15 03:57:00
9:57 PM,39.0,34.0,82,30.19,10.0,Calm,Calm,-,N/A,,Clear,0,2012-10-15 04:57:00
10:57 PM,37.0,33.1,86,30.20,10.0,Calm,Calm,-,N/A,,Clear,0,2012-10-15 05:57:00
11:57 PM,35.1,32.0,89,30.19,10.0,Calm,Calm,-,N/A,,Clear,0,2012-10-15 06:57:00